Total_Precipitation_Accumulation
1.21 1.25 1.35 1.57 1.76 1.78 1.71 1.56 1.40 1.39 1.37 1.35 1.38 1.43 1.43 1.38 1.36 1.42 1.39 1.31 1.32 1.33 1.35 1.39 1.41 1.44 1.46 1.38 1.38 1.39 1.36 1.44 1.45 0.93 0.76 0.80 0.98 1.07 1.06 1.01 1.04 1.09 1.12
1.18 1.22 1.28 1.36 1.52 1.73 1.68 1.53 1.37 1.33 1.35 1.35 1.33 1.35 1.36 1.37 1.38 1.41 1.38 1.31 1.30 1.29 1.30 1.28 1.28 1.32 1.40 1.35 1.31 1.27 1.22 1.18 1.24 1.08 0.83 0.81 0.88 0.96 1.07 1.16 1.14 1.11 1.06
1.18 1.21 1.20 1.26 1.33 1.43 1.56 1.50 1.38 1.30 1.28 1.31 1.34 1.34 1.37 1.40 1.40 1.34 1.36 1.31 1.26 1.26 1.27 1.27 1.23 1.29 1.36 1.31 1.30 1.24 1.15 1.08 1.08 1.10 0.93 0.84 0.88 0.92 1.09 1.26 1.26 1.27 1.20
1.08 1.12 1.12 1.11 1.16 1.20 1.30 1.47 1.46 1.37 1.28 1.23 1.22 1.28 1.39 1.55 1.60 1.55 1.56 1.44 1.32 1.26 1.21 1.18 1.20 1.31 1.35 1.37 1.41 1.31 1.24 1.25 1.24 1.27 1.14 1.01 1.02 1.03 1.21 1.45 1.55 1.51 1.44
0.97 1.03 1.07 1.10 1.16 1.19 1.17 1.28 1.44 1.40 1.25 1.17 1.15 1.21 1.32 1.70 2.10 2.10 1.99 1.72 1.42 1.26 1.17 1.14 1.20 1.35 1.41 1.58 1.71 1.59 1.56 1.66 1.62 1.60 1.48 1.38 1.30 1.34 1.41 1.45 1.63 1.65 1.63
0.87 0.95 1.02 1.11 1.24 1.24 1.18 1.22 1.34 1.41 1.34 1.23 1.16 1.16 1.22 1.53 2.23 2.40 2.05 1.59 1.38 1.26 1.20 1.14 1.15 1.28 1.32 1.45 1.64 1.73 1.79 1.91 1.99 1.95 1.85 1.71 1.45 1.36 1.40 1.54 1.64 1.82 1.89
0.83 0.89 0.95 1.01 1.18 1.25 1.22 1.28 1.33 1.39 1.45 1.43 1.27 1.16 1.14 1.33 2.02 2.19 1.92 1.50 1.32 1.25 1.18 1.16 1.16 1.21 1.28 1.26 1.39 1.46 1.50 1.66 1.89 2.00 2.05 1.66 1.43 1.37 1.60 1.80 1.76 1.83 1.80
0.89 0.91 0.95 0.96 1.02 1.16 1.28 1.30 1.32 1.35 1.38 1.44 1.38 1.26 1.17 1.25 1.81 2.01 1.81 1.47 1.33 1.24 1.15 1.13 1.14 1.16 1.27 1.47 1.44 1.40 1.31 1.33 1.53 1.74 2.00 1.82 1.63 1.65 1.99 2.31 2.38 2.25 1.84
0.97 0.97 0.94 0.90 0.94 1.05 1.17 1.28 1.32 1.34 1.29 1.30 1.31 1.30 1.24 1.22 1.59 1.89 1.72 1.41 1.35 1.26 1.14 1.11 1.14 1.14 1.41 1.69 1.59 1.44 1.28 1.19 1.29 1.62 1.94 2.08 2.12 2.23 2.46 2.76 2.91 2.73 2.27
0.95 0.99 0.91 0.82 0.80 0.84 0.96 1.16 1.28 1.29 1.23 1.23 1.24 1.25 1.19 1.13 1.40 1.70 1.70 1.39 1.31 1.25 1.18 1.13 1.27 1.36 1.56 1.70 1.55 1.51 1.60 1.38 1.22 1.26 1.36 1.47 1.55 1.71 2.10 2.38 2.69 2.78 2.42
0.94 1.00 0.91 0.81 0.79 0.81 0.88 1.06 1.20 1.28 1.27 1.21 1.17 1.18 1.14 1.13 1.25 1.46 1.69 1.49 1.32 1.26 1.23 1.18 1.16 1.42 1.52 1.61 1.64 1.59 1.83 1.71 1.43 1.42 1.39 1.33 1.30 1.41 1.61 1.91 2.33 2.68 2.71
0.96 0.94 0.93 0.89 0.85 0.86 0.91 1.04 1.17 1.25 1.32 1.27 1.17 1.14 1.13 1.13 1.23 1.38 1.57 1.61 1.48 1.27 1.16 1.05 1.11 1.35 1.44 1.56 1.56 1.66 1.79 1.70 1.49 1.44 1.35 1.29 1.30 1.35 1.43 1.58 1.92 2.19 2.32
0.92 0.95 0.95 0.95 0.92 0.93 0.97 1.06 1.18 1.25 1.30 1.28 1.20 1.13 1.11 1.06 1.21 1.48 1.43 1.47 1.51 1.30 1.15 1.25 1.32 1.43 1.43 1.36 1.43 1.54 1.53 1.46 1.53 1.53 1.37 1.28 1.28 1.40 1.46 1.50 1.64 1.92 2.08
0.82 0.91 0.91 0.94 0.99 1.02 1.05 1.08 1.16 1.26 1.33 1.23 1.16 1.08 1.03 1.06 1.26 1.43 1.38 1.36 1.45 1.41 1.35 1.40 1.47 1.45 1.35 1.25 1.29 1.30 1.26 1.36 1.51 1.50 1.36 1.23 1.20 1.32 1.47 1.57 1.67 1.82 2.04
0.75 0.87 0.95 0.99 1.04 1.08 1.09 1.13 1.20 1.21 1.35 1.32 1.18 1.10 1.12 1.23 1.43 1.56 1.50 1.43 1.43 1.44 1.52 1.59 1.52 1.43 1.39 1.26 1.16 1.10 1.15 1.31 1.43 1.33 1.30 1.27 1.24 1.28 1.36 1.48 1.70 1.84 1.99
0.76 0.83 0.93 1.01 1.03 1.02 1.01 1.07 1.24 1.26 1.29 1.26 1.20 1.16 1.10 1.28 1.45 1.51 1.58 1.60 1.62 1.69 1.72 1.64 1.42 1.26 1.22 1.18 1.15 1.12 1.08 1.11 1.17 1.25 1.28 1.28 1.28 1.31 1.33 1.34 1.51 1.77 1.92
0.77 0.82 0.89 0.98 0.97 0.93 0.89 0.91 1.02 1.19 1.29 1.27 1.24 1.19 1.18 1.28 1.34 1.42 1.55 1.65 1.70 1.69 1.60 1.39 1.21 1.14 1.10 1.08 1.07 1.05 1.01 0.95 1.00 1.10 1.15 1.19 1.25 1.29 1.32 1.34 1.39 1.55 1.74
0.73 0.84 0.89 0.93 0.95 0.93 0.90 0.89 0.91 1.00 1.13 1.20 1.24 1.21 1.19 1.25 1.30 1.39 1.53 1.65 1.70 1.54 1.34 1.24 1.15 1.07 1.05 1.08 1.09 1.07 1.03 0.99 1.01 1.04 1.07 1.08 1.17 1.29 1.31 1.29 1.32 1.46 1.62
0.76 0.81 0.82 0.88 0.93 0.94 0.93 0.95 0.97 0.99 1.03 1.08 1.14 1.28 1.36 1.36 1.38 1.44 1.46 1.41 1.35 1.25 1.17 1.15 1.12 1.09 1.08 1.09 1.11 1.11 1.10 1.07 1.02 1.03 1.03 1.03 1.06 1.17 1.21 1.17 1.21 1.35 1.53
0.78 0.89 0.87 0.88 0.93 0.96 0.96 1.01 1.06 1.09 1.10 1.07 1.08 1.19 1.38 1.54 1.52 1.49 1.37 1.27 1.24 1.14 1.08 1.12 1.12 1.11 1.11 1.12 1.13 1.14 1.12 1.06 1.01 1.01 0.98 0.97 0.99 1.05 1.10 1.12 1.18 1.27 1.33
0.74 0.82 0.91 0.89 0.87 0.91 0.96 1.01 1.06 1.13 1.14 1.07 1.01 1.11 1.38 1.50 1.41 1.26 1.21 1.22 1.27 1.25 1.18 1.15 1.13 1.13 1.12 1.14 1.15 1.12 1.08 1.01 0.95 0.94 0.95 0.94 0.97 1.01 1.01 1.05 1.11 1.18 1.26
0.76 0.80 0.82 0.84 0.87 0.93 0.99 1.01 1.07 1.13 1.12 1.09 1.06 1.13 1.29 1.24 1.23 1.21 1.17 1.17 1.23 1.28 1.27 1.27 1.21 1.15 1.16 1.20 1.22 1.20 1.09 0.97 0.90 0.90 0.93 0.93 0.93 0.95 0.98 1.01 1.01 1.07 1.16
0.82 0.86 0.87 0.84 0.85 0.98 1.04 1.02 1.06 1.10 1.13 1.12 1.13 1.15 1.17 1.16 1.16 1.20 1.23 1.23 1.27 1.28 1.24 1.24 1.22 1.15 1.09 1.09 1.11 1.18 1.17 1.02 0.92 0.95 1.03 1.01 0.97 0.96 0.99 1.02 1.00 1.03 1.10
0.85 0.90 0.91 0.88 0.86 0.92 0.99 1.03 1.05 1.08 1.12 1.14 1.15 1.17 1.18 1.18 1.17 1.19 1.24 1.29 1.31 1.28 1.22 1.21 1.16 1.11 1.06 1.03 1.00 0.99 1.00 1.02 1.05 1.06 1.06 1.08 1.03 0.97 1.00 1.03 1.00 1.02 1.09
0.87 0.88 0.91 0.90 0.91 0.93 0.97 1.02 1.04 1.06 1.09 1.12 1.15 1.17 1.18 1.18 1.19 1.18 1.20 1.22 1.23 1.20 1.15 1.14 1.12 1.11 1.07 1.01 0.96 0.94 1.02 1.10 1.15 1.24 1.26 1.19 1.08 1.01 1.03 1.03 0.99 1.00 1.06
0.83 0.84 0.88 0.92 0.95 0.96 1.01 1.07 1.06 1.05 1.11 1.12 1.12 1.15 1.17 1.19 1.19 1.14 1.11 1.11 1.13 1.10 1.06 1.04 1.03 1.07 1.06 1.04 1.01 1.06 1.13 1.10 1.11 1.20 1.31 1.30 1.14 1.00 1.01 1.03 0.98 1.00 1.03